STARLINK-34175 (64169 NORAD) Tracking and Keplerian Element Data

This shows tracking and keplerian element data for the satellite.

Feedback or suggestion? Click here.




ElementValue
Catalog64169
NameSTARLINK-34175
Epoch Orbit3133
Epoch Day354.13208319
Epoch Year2025
RAAN43.0446
Inclination97.6055
Eccentricity0.0001354
Argument of Perigee105.6021
Mean Anonmoly254.5356
Mean Motion15.05656801
Decay Rate3.292E-05
L11 64169U 25112Z 25354.13208319 .00003292 00000+0 23218-3 0 9997
L22 64169 97.6055 43.0446 0001354 105.6021 254.5356 15.05656801 31336



Live tracking and technical data element details for STARLINK-34175 (NORAD 64169). STARLINK-34175 can be tracked NOW for your location showing map with azimuth and elevation plus other details from your city location.







IsCatalogInMostPopularTable: catalog: 64169, numindb: 2
Update: records affected: 1



GetName: 64169 STARLINK-34175

Hit Count: updated at: Mon, 09 Feb 2026 09:05:06 GMT